Other Public Products
Issued by NWS Grand Forks, ND

Home | Current Version | Previous Version | Graphics & Text | Print | Product List | Glossary On
Versions: 1 2 3 4 5 6 7 8 9 10 11 12 13 14 15 16 17 18 19 20 21 22 23 24 25 26 27 28 29 30 31 32 33 34 35 36 37 38 39 40 41 42 43 44 45 46 47 48 49 50
000
FPUS83 KFGF 110531
OPUFGF
PRAIRIE TO PINES WEATHER ROUNDUP
NATIONAL WEATHER SERVICE EASTERN NORTH DAKOTA/GRAND FORKS ND
1100 PM CST WED FEB 10 2016

 **SATELLITE DATA USED TO AUGMENT SKY COVER AT AUTOMATED STATIONS**
 *****  WEATHER ACROSS EASTERN NORTH DAKOTA  *****

CITY           SKY/WX    TMP DP  RH WIND       PRES   REMARKS
GRAND FORKS    CLOUDY     3  -4  72 CALM      30.31S
GRAND FORKS AF PTCLDY    -1  -6  79 N2        30.31R
GRAND CITY NWS NOT AVBL
BUXTON           N/A      5   0  79 CALM        N/A
DEVILS LAKE    FLURRIES   4   0  83 SE3       30.25S
FARGO          CLOUDY     9   0  67 N6        30.31R WCI  -1
WAHPETON ARPT  CLOUDY    10   1  67 N6        30.29R WCI   1
$$

 *****  WEATHER ACROSS CENTRAL AND WESTERN NORTH DAKOTA  *****

CITY           SKY/WX    TMP DP  RH WIND       PRES   REMARKS
JAMESTOWN      CLOUDY     8   1  73 E5        30.24S WCI   0
BISMARCK       CLOUDY    17  10  74 E7        30.22S WCI   8
MINOT          CLOUDY    13   5  70 SE6       30.18F WCI   4
MINOT AFB      CLOUDY    11   8  89 SE5       30.18F WCI   2
GARRISON         N/A     12   9  87 E6        30.17F WCI   3
WILLISTON      CLOUDY    26  22  84 SE5       30.14S WCI  20
DICKINSON      CLOUDY    23  20  88 SE6       30.09F WCI  16
HETTINGER      CLOUDY    28  23  81 E7        30.13S WCI  21
$$

 *****  OTHER OBSERVATIONS NORTHEAST NORTH DAKOTA  *****

CITY           SKY/WX    TMP DP  RH WIND       PRES   REMARKS
WALHALLA         N/A     -2  -4  92 CALM      30.29F
LANGDON        FAIR      -9 -15  77 S6        30.22F WCI -23
CAVALIER       FAIR       0  -4  85 CALM      30.30F
GRAFTON        FAIR       1   0  92 CALM      30.32F
CANDO          MOCLDY     0   0 100 E5        30.26S WCI -10
FORT TOTTEN      N/A      2  -2  83 SE2       29.95S
ROLLA          FAIR       0  -4  85 SW5       30.20F WCI -10
RUGBY          MOCLDY     7   3  85 SE3       30.22F
 ***** THE ABOVE OBSERVATIONS ARE NON NWS ARE NOT QUALITY
        CONTROLLED AND MAY MIS-REPORT RAIN FOR SNOW...
$$

 *****  OTHER OBSERVATIONS SOUTHEAST NORTH DAKOTA *****

CITY           SKY/WX    TMP DP  RH WIND       PRES   REMARKS
COOPERSTOWN    NOT AVBL
VALLEY CITY    CLOUDY     5   1  85 NE3       30.28R
OAKES          CLOUDY     9   3  78 NE7       30.26S WCI  -3
GWINNER        CLOUDY    10   5  79 N7        30.27S WCI   0
SHEYENNE NWR     N/A      4  -2  75 N2        29.95S
BUFFALO          N/A      6   0  75 N3          N/A
WYNDMERE         N/A      7   1  78 N6          N/A  WCI  -3
 ***** THE ABOVE OBSERVATIONS ARE NON NWS ARE NOT QUALITY
       CONTROLLED AND MAY MIS-REPORT RAIN FOR SNOW...
$$

  *****  WEATHER ACROSS NORTHERN MINNESOTA  *****

CITY           SKY/WX    TMP DP  RH WIND       PRES   REMARKS
FLAG ISLAND    CLOUDY    -9 -15  77 CALM      30.25R
WARROAD        CLOUDY   -17 -24  70 SW3       30.26F
ROSEAU         CLOUDY   -11 -18  70 CALM      30.27F
HALLOCK        CLOUDY    -4  -8  84 CALM      30.30S
THF RVR FALLS  CLOUDY    -2 -26  32 CALM      30.28S
HALSTAD          N/A      6   3  86 NE3         N/A
FOSSTON        CLOUDY   -11 -18  70 CALM      30.26R
BAUDETTE       CLOUDY   -20 -25  77 W5        30.25R WCI -33
WASKISH        CLOUDY   -15 -18  84 CALM      30.25S
CROOKSTON      CLOUDY     0  -6  78 CALM      30.31S
$$
  *****  WEATHER ACROSS CENTRAL AND WEST MINNESOTA  *****

CITY           SKY/WX    TMP DP  RH WIND       PRES   REMARKS
BEMIDJI        CLOUDY   -12 -15  83 CALM      30.23S
PARK RAPIDS    CLOUDY     2  -8  63 CALM      30.22R
WADENA         CLOUDY     3  -4  72 CALM      30.24R
DETROIT LAKES  CLOUDY     5   3  92 CALM      30.26R
MOORHEAD       CLOUDY     7  -2  66 NE7       30.27F WCI  -5
FERGUS FALLS   CLOUDY     9   1  72 N5        30.30R WCI   0
ELBOW LAKE     CLOUDY    11   4  72 CALM      30.26R
MORRIS MN      CLOUDY    10   5  79 NW3       30.25R
STAPLES        CLOUDY     1  -8  66 N5        30.25R WCI  -8
WHEATON        CLOUDY     7   3  85 CALM      30.30R
$$
  *****  WEATHER ELSEWHERE ACROSS MINNESOTA  *****

CITY           SKY/WX    TMP DP  RH WIND       PRES   REMARKS
DULUTH         CLOUDY    -3 -12  65 N10       30.16F WCI -20
INTRNTL FALLS  CLOUDY   -19 -26  70 CALM      30.22F
ELY            CLOUDY   -18 -24  76 CALM      30.19S
CLOQUET        CLEAR     -2 -11  65 NW6       30.19S WCI -14
BRAINERD       CLEAR      0  -8  69 NW5       30.24R WCI -10
HIBBING        CLOUDY   -15 -19  82 CALM      30.20R
ALEXANDRIA     CLOUDY     9  -1  64 CALM      30.23R
SAINT CLOUD    CLEAR      7  -2  66 NW3       30.25R
MINNEAPOLIS    MOCLDY    10  -4  53 NW3       30.27R
$$

  *****  WEATHER ACROSS SOUTH DAKOTA  *****

CITY           SKY/WX    TMP DP  RH WIND       PRES   REMARKS
SIOUX FALLS    CLOUDY    13   7  77 NE12      30.21R WCI  -1
BROOKINGS      FLURRIES  10   7  85 E6        30.20R WCI   1
WATERTOWN      CLOUDY    11   4  73 E6        30.18S WCI   1
HURON          CLOUDY    16  11  80 E8        30.21S WCI   5
SISSETON         N/A     11   5  77 NE7       30.26R WCI   0
ABERDEEN       CLOUDY    13   7  77 NE6       30.27R WCI   4
MITCHELL       CLOUDY    19  13  77 SE6       30.22R WCI  11
PIERRE         MOCLDY    22  19  89 CALM      30.19R
MOBRIDGE       CLOUDY    21  15  78 NE6       30.18R WCI  13
RAPID CITY     CLOUDY    29  27  92 E3        30.14R
$$

  *****  SOME WEATHER IN NEARBY STATES *****

CITY           SKY/WX    TMP DP  RH WIND       PRES   REMARKS
GLASGOW MT     CLOUDY    31  25  78 E7        30.11R WCI  24
GREAT FALLS MT CLOUDY    50  25  37 SW16      30.03F
CHEYENNE WY    CLEAR     38  15  39 NW5       30.19R
SCOTTSBLUFF NE CLEAR     33  26  75 NW8       30.14R
OMAHA NE       CLOUDY    22  16  78 N7        30.17R WCI  13
DES MOINES IA  CLOUDY    17   9  70 NE9       30.18S WCI   6
DAVENPORT IA   MOCLDY    11   3  70 N6        30.20R WCI   1
CHICAGO IL     CLOUDY    10   1  67 NW7       30.17R WCI  -1
EAU CLAIRE WI  CLEAR      6  -5  60 NW5       30.22R WCI  -3
LA CROSSE WI   CLEAR      6  -3  66 N3        30.24S
$$

  *****  SOME NATIONAL WEATHER *****

CITY           SKY/WX    TMP DP  RH WIND       PRES   REMARKS
LA GUARDIA NY  CLOUDY    32  16  51 W17G26    29.74F WCI  21
RALEIGH NC     MOCLDY    27   7  42 NW6       30.06R WCI  20
ATLANTA GA     MOCLDY    32  10  40 NW8       30.17S WCI  25
NEW ORLEANS LA PTCLDY    48  29  47 SW12      30.25F
OKLAHOMA CITY  CLEAR     55  30  38 N13       29.97R
ALBUQUERQUE NM PTCLDY    44  19  36 CALM      30.31S
SALT LAKE CITY CLOUDY    30  27  88 CALM      30.45F FOG
LOS ANGELES CA CLEAR     65  42  43 SE5       30.09S
BOISE ID       PTCLDY    33  29  85 CALM      30.42S
SEATTLE WA     PTCLDY    51  47  86 CALM      30.31R
$$

*** WEATHER ACROSS MANITOBA...SASKATCHEWAN AND ONTARIO ***
                ***ONTARIO***

CITY           SKY/WX    TMP DP  RH WIND       PRES   REMARKS
GERALDTON      CLEAR    -20 -24  83 VRB2      30.07S
THUNDER BAY    CLEAR     -8 -13  77 W8        30.20S WCI -23
SIOUX LOOKOUT  PTCLDY   -20 -26  76 N3        30.17R
TORONTO        PTCLDY    12   0  57 W16       29.82R WCI  -4
BIG TROUT LK   FLURRIES -15 -20  76 W6        30.07F WCI -29
PICKLE LAKE    NOT AVBL
DRYDEN         MOCLDY    -9 -13  84 W7        30.18R WCI -24
KENORA         CLEAR     -2  -9  71 NW7       30.20F WCI -16
$$
                *** MANITOBA***

CITY           SKY/WX    TMP DP  RH WIND       PRES   REMARKS
BRANDON        FLURRIES   1  -2  85 NE5       30.24S WCI  -8
DAUPHIN        FLURRIES   9   3  78 W7        30.24S WCI  -3
ISLAND LAKE    CLEAR    -13 -18  77 W6        30.19F WCI -27
PILOT MOUND      N/A    -11 -15  84 S6          N/A  WCI -25
THE PAS        PTCLDY    -2  -6  84 NW6       30.31S WCI -14
THOMPSON       CLEAR    -13 -18  77 NW7       30.21F WCI -29
WINNIPEG       CLOUDY    -2  -9  71 SW6       30.30S WCI -14
LYNN LAKE      CLEAR    -18 -22  83 NW9       30.24F WCI -38
CHURCHILL      CRYSTALS -22 -29  69 NW21G28   30.12F WCI -51
GILLAM         CLEAR    -18 -26  69 NW12      30.15F WCI -40
$$
                ***SASKATCHEWAN***

CITY           SKY/WX    TMP DP  RH WIND       PRES   REMARKS
ESTEVAN        FLURRIES  14  10  85 SE8       30.14F WCI   3
KINDERSLEY     CLOUDY    21  18  86 E17       30.09F WCI   7
LLOYDMINSTER   LGT SNOW  16  12  86 E13       30.14F WCI   2
PRINCE ALBERT  CLOUDY     9   3  78 NE6       30.26S WCI  -1
REGINA         CLOUDY    18  12  79 SE2       30.17R
YORKTON        FLURRIES  12   9  85 SW2       30.18S  C1F1C2F2C3F3C4F4C5F5C6F6C7F7C8F8C9F9CaFaCbFbCcFcCdFdCe!


USA.gov is the U.S. government's official web portal to all federal, state and local government web resources and services.